Location: Unspecified
(40.7945°N, 0.0000°E)
Time: 23:15:04
(UTC+00:00)

METEOR M2 - Visible Passes

Search period start: 04 August 2020 00:00
Search period end: 14 August 2020 00:00
Orbit: 818 x 828 km, 98.5° (Epoch: 04 August)

Date Brightness Start Highest point End Pass type
(mag) Time Alt. Az. Time Alt. Az. Time Alt. Az.
04 Aug ? 20:42:29 10° SW 20:46:08 18° W 20:49:48 10° NW visible
05 Aug ? 20:21:31 10° SSW 20:26:03 28° W 20:30:37 10° NW visible
06 Aug ? 20:00:58 10° SSW 20:06:01 42° W 20:11:06 10° NNW visible
07 Aug ? 19:40:44 10° S 19:46:03 64° WSW 19:51:24 10° NNW visible
08 Aug ? 21:05:20 10° WSW 21:06:57 11° W 21:08:34 10° WNW visible
09 Aug ? 20:43:14 10° SW 20:46:48 18° W 20:50:23 10° NW visible
10 Aug ? 20:22:13 10° SSW 20:26:43 27° W 20:31:14 10° NW visible
11 Aug ? 20:01:39 10° SSW 20:06:41 41° W 20:11:44 10° NNW visible
12 Aug ? 19:41:25 10° S 19:46:43 62° W 19:52:02 10° NNW visible
13 Aug ? 19:21:26 10° SSE 19:26:48 87° ENE 19:32:11 10° NNW visible
13 Aug ? 21:06:14 10° WSW 21:07:37 11° W 21:08:59 10° WNW visible
